Flag for Portugal Weather past 2 weeks in Lisbon, Portugal

Now
55 °F

Light rain. Passing clouds.


Feels Like: 51 °F
Forecast: 50 / 56 °F
Wind: 20 mph from Northwest

Location: Lisbon Portela Airport

Current Time: Jan 31, 2015 at 7:10:09 AM

Latest Report: Jan 31, 2015 at 6:30 AM


Visibility: N/A

Pressure: 29.74 "Hg

Humidity: 88%

Dew point: 52 °F

Location of LisbonLocation

Historic Weather in Lisbon — Graph

°F

Lisbon temperature yesterday

Maximum temperature yesterday: 57 °F (at 9:30 AM)
Minimum temperature yesterday: 55 °F (at 12:00 AM)
Average temperature yesterday: 56 °F

Past Weeks' High & Low Weather Summary

 TemperatureHumidityPressure
High63 °F (Jan 25, 12:30 PM)100% (Jan 17, 7:00 PM)30.45 "Hg (Jan 17, 7:00 PM)
Low39 °F (Jan 25, 5:00 AM)45% (Jan 27, 3:00 PM)29.71 "Hg (Jan 31, 4:00 AM)
Average52 °F83%30.18 "Hg
* Reported Jan 16 6:00 AM — Jan 31 6:00 AM, Lisbon, Weather by CustomWeather, © 2014

Note: Actual official high and low records may vary slightly from our data, if they occured in-between our weather recording intervals... More about our weather records

Advertising

Lisbon weather history for previous 24 hours

 ConditionsComfort  
Time TempWeatherWind HumidityBarometerVisibility
6:00 AM
Jan 31
55 °FLight rain. Passing clouds.18 mph88%29.71 "HgN/A
5:30 AM55 °FLight rain. Passing clouds.16 mph94%29.71 "Hg4 mi
5:00 AM57 °FLight rain. Passing clouds.21 mph88%29.71 "Hg5 mi
4:30 AM55 °FPassing clouds.21 mph94%29.71 "Hg4 mi
4:00 AM55 °FDrizzle. Fog.18 mph94%29.71 "Hg2 mi
3:00 AM55 °FDrizzle. Fog.21 mph94%29.74 "Hg2 mi
2:30 AM55 °FDrizzle. Fog.18 mph94%29.74 "Hg2 mi
2:00 AM55 °FDrizzle. Fog.20 mph94%29.74 "Hg3 mi
1:30 AM55 °FPassing clouds.17 mph100%29.77 "Hg4 mi
1:00 AM55 °FDrizzle. Fog.15 mph94%29.80 "Hg3 mi
12:00 AM55 °FPassing clouds.17 mph94%29.80 "Hg4 mi
11:30 PM
Jan 30
57 °FDrizzle. Fog.13 mph94%29.83 "Hg3 mi
11:00 PM57 °FDrizzle. Fog.14 mph94%29.83 "Hg3 mi
10:30 PM57 °FDrizzle. Fog.12 mph94%29.83 "Hg2 mi
10:00 PM57 °FDrizzle. Fog.13 mph94%29.83 "Hg2 mi
9:00 PM57 °FDrizzle. Fog.13 mph94%29.86 "Hg2 mi
8:00 PM55 °FDrizzle. Fog.15 mph100%29.86 "Hg2 mi
7:30 PM55 °FDrizzle. Fog.14 mph100%29.86 "Hg3 mi
7:00 PM55 °FDrizzle. Fog.14 mph100%29.86 "Hg3 mi
6:30 PM55 °FDrizzle. Fog.13 mph100%29.86 "Hg2 mi
6:00 PM55 °FDrizzle. Fog.14 mph100%29.86 "Hg1 mi
5:30 PM55 °FDrizzle. Fog.12 mph100%29.86 "Hg1 mi
5:00 PM57 °FDrizzle. Fog.14 mph94%29.89 "Hg2 mi
4:30 PM57 °FDrizzle. Fog.10 mph94%29.89 "Hg2 mi
4:00 PM57 °FDrizzle. Fog.13 mph94%29.89 "Hg2 mi
3:30 PM57 °FDrizzle. Fog.15 mph94%29.89 "Hg2 mi
3:00 PM57 °FDrizzle. Fog.13 mph94%29.89 "Hg2 mi
2:30 PM57 °FDrizzle. Fog.14 mph94%29.92 "Hg2 mi
2:00 PM57 °FDrizzle. Fog.14 mph94%29.95 "Hg1 mi
1:30 PM57 °FDrizzle. Fog.12 mph94%29.95 "Hg1 mi
1:00 PM57 °FDrizzle. Fog.13 mph94%29.95 "Hg1 mi
12:30 PM57 °FDrizzle. Fog.10 mph94%29.98 "Hg2 mi
12:00 PM57 °FDrizzle. Fog.10 mph94%30.01 "Hg2 mi
11:30 AM57 °FDrizzle. Fog.12 mph94%30.01 "Hg1 mi
11:00 AM57 °FDrizzle. Fog.12 mph94%30.01 "Hg2 mi
10:30 AM57 °FDrizzle. Fog.13 mph94%30.01 "Hg1 mi
10:00 AM57 °FDrizzle. Fog.9 mph94%29.98 "Hg1 mi
9:30 AM57 °FDrizzle. Fog.9 mph94%30.01 "Hg1 mi
9:00 AM55 °FDrizzle. Fog.9 mph100%30.01 "Hg1 mi
8:30 AM55 °FDrizzle. Fog.10 mph100%30.01 "Hg1 mi
8:00 AM55 °FDrizzle. Fog.10 mph100%30.01 "Hg1 mi
7:30 AM55 °FDrizzle. Fog.14 mph100%30.01 "Hg3 mi
7:00 AM55 °FDrizzle. Fog.8 mph100%30.01 "Hg2 mi
Weather by CustomWeather, © 2014

See weather overviewHow to use our weather pages